When you browse on this site, cookies collect data to enhance your experience and personalize the content and advertising you see.
Visit our Privacy Policy to learn more. By continuing to use the site, you agree to this use of cookies and data.
  • en Belgique
  • Liste des pays
  • À 7 jours
  • Température de l'eau
  • Carte satellitaire
  • Carte météo
  • Widgets météo
  • user-avatar
    Se connecter

    Météo par heure à Frankfurt

    Ce jour, 25 Avril, Jeudi

    Heure Température Précipitation Vent Pression Humidité
    00:00 +8°C° 0 mm 1 m/s 716 mmHg 77%
    01:00 +7°C° 0 mm 1 m/s 716 mmHg 78%
    02:00 +6°C° 0 mm 2 m/s 716 mmHg 78%
    03:00 +6°C° 0 mm 2 m/s 716 mmHg 79%
    04:00 +6°C° 0 mm 2 m/s 716 mmHg 80%
    05:00 +7°C° 0 mm 2 m/s 716 mmHg 78%
    06:00 +7°C° 0 mm 2 m/s 717 mmHg 77%
    07:00 +9°C° 0 mm 1 m/s 717 mmHg 75%
    08:00 +10°C° 0 mm 2 m/s 717 mmHg 69%
    09:00 +11°C° 0 mm 3 m/s 717 mmHg 63%
    10:00 +13°C° 0 mm 3 m/s 717 mmHg 57%
    11:00 +15°C° 0 mm 4 m/s 717 mmHg 53%
    12:00 +18°C° 0 mm 4 m/s 717 mmHg 48%
    13:00 +20°C° 0 mm 4 m/s 717 mmHg 44%
    14:00 +21°C° 0 mm 4 m/s 716 mmHg 43%
    15:00 +21°C° 0 mm 4 m/s 716 mmHg 41%
    16:00 +22°C° 0 mm 4 m/s 716 mmHg 40%
    17:00 +20°C° 0 mm 4 m/s 716 mmHg 48%
    18:00 +19°C° 0 mm 3 m/s 715 mmHg 55%
    19:00 +17°C° 0 mm 3 m/s 715 mmHg 62%
    20:00 +14°C° 0.5 mm 3 m/s 715 mmHg 71%
    21:00 +13°C° 0.5 mm 2 m/s 715 mmHg 79%
    22:00 +9°C° 0.5 mm 2 m/s 715 mmHg 87%
    23:00 +9°C° 0.1 mm 2 m/s 716 mmHg 88%

    Demain, 26 Avril, Vendredi

    Heure Température Précipitation Vent Pression Humidité
    00:00 +9°C° 0.1 mm 2 m/s 716 mmHg 89%
    01:00 +9°C° 0.1 mm 2 m/s 717 mmHg 90%
    02:00 +8°C° 0 mm 2 m/s 717 mmHg 91%
    03:00 +8°C° 0 mm 2 m/s 717 mmHg 92%
    04:00 +7°C° 0 mm 2 m/s 717 mmHg 94%
    05:00 +8°C° 0 mm 2 m/s 717 mmHg 92%
    06:00 +8°C° 0 mm 3 m/s 717 mmHg 90%
    07:00 +8°C° 0 mm 3 m/s 718 mmHg 89%
    08:00 +8°C° 0.9 mm 3 m/s 718 mmHg 89%
    09:00 +9°C° 0.9 mm 3 m/s 718 mmHg 89%
    10:00 +9°C° 0.9 mm 3 m/s 719 mmHg 88%
    11:00 +9°C° 1.2 mm 3 m/s 719 mmHg 88%
    12:00 +9°C° 1.2 mm 3 m/s 719 mmHg 87%
    13:00 +9°C° 1.2 mm 3 m/s 720 mmHg 87%
    14:00 +9°C° 0.2 mm 3 m/s 720 mmHg 84%
    15:00 +10°C° 0.2 mm 3 m/s 720 mmHg 82%
    16:00 +10°C° 0.2 mm 3 m/s 720 mmHg 79%
    17:00 +10°C° 0 mm 3 m/s 720 mmHg 79%
    18:00 +10°C° 0 mm 2 m/s 720 mmHg 79%
    19:00 +10°C° 0 mm 2 m/s 720 mmHg 79%
    20:00 +9°C° 0.2 mm 2 m/s 721 mmHg 81%
    21:00 +8°C° 0.2 mm 2 m/s 721 mmHg 84%
    22:00 +8°C° 0.2 mm 2 m/s 721 mmHg 86%
    23:00 +7°C° 0 mm 2 m/s 721 mmHg 87%

    Après-demain, 27 Avril, Samedi

    Heure Température Précipitation Vent Pression Humidité
    00:00 +7°C° 0 mm 2 m/s 721 mmHg 88%
    01:00 +7°C° 0 mm 2 m/s 721 mmHg 88%
    02:00 +6°C° 0 mm 2 m/s 720 mmHg 89%
    03:00 +6°C° 0 mm 2 m/s 720 mmHg 91%
    04:00 +5°C° 0 mm 2 m/s 720 mmHg 92%
    05:00 +6°C° 0 mm 2 m/s 720 mmHg 91%
    06:00 +5°C° 0 mm 3 m/s 720 mmHg 89%
    07:00 +7°C° 0 mm 3 m/s 720 mmHg 88%
    08:00 +7°C° 1 mm 3 m/s 720 mmHg 89%
    09:00 +7°C° 1 mm 3 m/s 720 mmHg 90%
    10:00 +7°C° 1 mm 3 m/s 720 mmHg 92%
    11:00 +8°C° 0.6 mm 3 m/s 720 mmHg 89%
    12:00 +7°C° 0.6 mm 4 m/s 720 mmHg 86%
    13:00 +7°C° 0.6 mm 5 m/s 720 mmHg 83%
    14:00 +8°C° 0.3 mm 5 m/s 720 mmHg 79%
    15:00 +8°C° 0.3 mm 5 m/s 720 mmHg 75%
    16:00 +8°C° 0.3 mm 5 m/s 720 mmHg 71%
    17:00 +7°C° 0.4 mm 4 m/s 720 mmHg 74%
    18:00 +7°C° 0.4 mm 4 m/s 720 mmHg 77%
    19:00 +7°C° 0.4 mm 3 m/s 720 mmHg 80%
    20:00 +5°C° 0.1 mm 3 m/s 721 mmHg 82%
    21:00 +4°C° 0.1 mm 3 m/s 721 mmHg 84%
    22:00 +3°C° 0.1 mm 4 m/s 721 mmHg 86%
    23:00 +3°C° 0.1 mm 4 m/s 721 mmHg 87%

    28 Avril, Dimanche

    Heure Température Précipitation Vent Pression Humidité
    00:00 +3°C° 0.1 mm 3 m/s 721 mmHg 87%
    01:00 +3°C° 0.1 mm 3 m/s 721 mmHg 88%
    02:00 +3°C° 0.2 mm 3 m/s 721 mmHg 89%
    03:00 +3°C° 0.2 mm 3 m/s 721 mmHg 89%
    04:00 +2°C° 0.2 mm 3 m/s 721 mmHg 90%
    05:00 +2°C° 0.4 mm 3 m/s 721 mmHg 90%
    06:00 +3°C° 0.4 mm 3 m/s 721 mmHg 90%
    07:00 +3°C° 0.4 mm 3 m/s 721 mmHg 90%
    08:00 +3°C° 0.2 mm 3 m/s 721 mmHg 87%
    09:00 +4°C° 0.2 mm 3 m/s 721 mmHg 85%
    10:00 +5°C° 0.2 mm 3 m/s 721 mmHg 82%
    11:00 +5°C° 0.1 mm 3 m/s 721 mmHg 79%
    12:00 +7°C° 0.1 mm 3 m/s 721 mmHg 76%
    13:00 +8°C° 0.1 mm 3 m/s 721 mmHg 73%
    14:00 +8°C° 0.2 mm 3 m/s 721 mmHg 69%
    15:00 +9°C° 0.2 mm 3 m/s 721 mmHg 65%
    16:00 +10°C° 0.2 mm 3 m/s 721 mmHg 61%
    17:00 +9°C° 0.1 mm 2 m/s 721 mmHg 65%
    18:00 +8°C° 0.1 mm 2 m/s 722 mmHg 69%
    19:00 +9°C° 0.1 mm 1 m/s 722 mmHg 73%
    20:00 +7°C° 0 mm 1 m/s 722 mmHg 76%
    21:00 +6°C° 0 mm 1 m/s 723 mmHg 79%
    22:00 +4°C° 0 mm 0 m/s 723 mmHg 82%
    23:00 +3°C° 0 mm 0 m/s 723 mmHg 83%

    29 Avril, Lundi

    Heure Température Précipitation Vent Pression Humidité
    00:00 +3°C° 0 mm 0 m/s 724 mmHg 85%
    01:00 +3°C° 0 mm 0 m/s 724 mmHg 86%
    02:00 +2°C° 0 mm 0 m/s 724 mmHg 87%
    03:00 +3°C° 0 mm 1 m/s 724 mmHg 88%
    04:00 +3°C° 0 mm 1 m/s 724 mmHg 89%
    05:00 +4°C° 0 mm 1 m/s 724 mmHg 86%
    06:00 +5°C° 0 mm 1 m/s 725 mmHg 83%
    07:00 +6°C° 0 mm 1 m/s 725 mmHg 81%
    08:00 +8°C° 0 mm 1 m/s 725 mmHg 72%
    09:00 +10°C° 0 mm 1 m/s 725 mmHg 64%
    10:00 +12°C° 0 mm 1 m/s 725 mmHg 55%
    11:00 +13°C° 0 mm 2 m/s 725 mmHg 50%
    12:00 +14°C° 0 mm 2 m/s 725 mmHg 45%
    13:00 +16°C° 0 mm 2 m/s 725 mmHg 41%
    14:00 +16°C° 0 mm 2 m/s 724 mmHg 42%
    15:00 +16°C° 0 mm 2 m/s 724 mmHg 44%
    16:00 +16°C° 0 mm 2 m/s 724 mmHg 45%
    17:00 +14°C° 0 mm 2 m/s 724 mmHg 52%
    18:00 +12°C° 0 mm 3 m/s 724 mmHg 60%
    19:00 +11°C° 0 mm 3 m/s 723 mmHg 67%
    20:00 +10°C° 0 mm 2 m/s 724 mmHg 73%
    21:00 +9°C° 0 mm 2 m/s 724 mmHg 79%
    22:00 +8°C° 0 mm 2 m/s 724 mmHg 85%
    23:00 +8°C° 0.4 mm 2 m/s 724 mmHg 88%

    30 Avril, Mardi

    Heure Température Précipitation Vent Pression Humidité
    00:00 +8°C° 0.4 mm 2 m/s 724 mmHg 90%
    01:00 +7°C° 0.4 mm 2 m/s 723 mmHg 93%
    02:00 +7°C° 0.1 mm 2 m/s 723 mmHg 93%
    03:00 +7°C° 0.1 mm 2 m/s 723 mmHg 94%
    04:00 +7°C° 0.1 mm 2 m/s 723 mmHg 94%
    05:00 +7°C° 0 mm 2 m/s 723 mmHg 92%
    06:00 +7°C° 0 mm 2 m/s 723 mmHg 91%
    07:00 +7°C° 0 mm 3 m/s 723 mmHg 89%
    08:00 +8°C° 0 mm 3 m/s 723 mmHg 83%
    09:00 +10°C° 0 mm 3 m/s 723 mmHg 77%
    10:00 +11°C° 0 mm 3 m/s 723 mmHg 71%
    11:00 +12°C° 0.1 mm 3 m/s 723 mmHg 66%
    12:00 +13°C° 0.1 mm 4 m/s 723 mmHg 60%
    13:00 +14°C° 0.1 mm 4 m/s 723 mmHg 55%
    14:00 +14°C° 0 mm 4 m/s 723 mmHg 54%
    15:00 +15°C° 0 mm 4 m/s 722 mmHg 53%
    16:00 +15°C° 0 mm 5 m/s 722 mmHg 52%
    17:00 +14°C° 0 mm 4 m/s 722 mmHg 57%
    18:00 +12°C° 0 mm 4 m/s 722 mmHg 62%
    19:00 +11°C° 0 mm 4 m/s 722 mmHg 67%
    20:00 +10°C° 0 mm 3 m/s 722 mmHg 71%
    21:00 +8°C° 0 mm 3 m/s 722 mmHg 75%
    22:00 +7°C° 0 mm 2 m/s 722 mmHg 78%
    23:00 +6°C° 0 mm 2 m/s 722 mmHg 81%
    Voir plus